AFL6723 LTAI-HECA

Flight info

Callsign AFL6723
Flight time N/A
Altitude 330000
Route TOMBI M855 RASDA A16 MERPI
Aircraft B738/M-V/N

Departure

Time N/A
Airport Antalya International Airport (LTAI)

Arrival

Time 2026-04-27 14:03
Airport Cairo International Airport (HECA)
Time Latitude Longitude Altitude Speed Heading
2026-04-27 13:32 31.81708 31.09149 30240 ft 459 kts 178°
2026-04-27 13:33 31.78541 31.09496 29726 ft 456 kts 178°
2026-04-27 13:33 31.75386 31.09840 29207 ft 454 kts 178°
2026-04-27 13:33 31.72332 31.10170 28631 ft 453 kts 178°
2026-04-27 13:33 31.69191 31.10507 27938 ft 452 kts 178°
2026-04-27 13:34 31.66086 31.10841 27167 ft 444 kts 178°
2026-04-27 13:34 31.63041 31.11168 26427 ft 436 kts 178°
2026-04-27 13:34 31.60038 31.11489 25716 ft 431 kts 178°
2026-04-27 13:34 31.57058 31.11806 25024 ft 429 kts 178°
2026-04-27 13:35 31.54098 31.12121 24346 ft 426 kts 178°
2026-04-27 13:35 31.51202 31.12496 23692 ft 422 kts 175°
2026-04-27 13:35 31.48320 31.13009 22937 ft 417 kts 173°
2026-04-27 13:35 31.45478 31.13569 22174 ft 412 kts 172°
2026-04-27 13:36 31.42704 31.14123 21444 ft 407 kts 172°
2026-04-27 13:36 31.39926 31.14669 20722 ft 403 kts 172°
2026-04-27 13:36 31.37174 31.15197 20002 ft 399 kts 172°
2026-04-27 13:36 31.34451 31.15711 19313 ft 395 kts 172°
2026-04-27 13:37 31.31752 31.16216 18637 ft 391 kts 172°
2026-04-27 13:37 31.29079 31.16715 17925 ft 387 kts 172°
2026-04-27 13:37 31.26431 31.17210 17175 ft 384 kts 172°
2026-04-27 13:37 31.23805 31.17701 16431 ft 380 kts 172°
2026-04-27 13:38 31.21204 31.18186 15692 ft 378 kts 172°
2026-04-27 13:38 31.18612 31.18669 14927 ft 376 kts 171°
2026-04-27 13:38 31.16046 31.19147 14260 ft 371 kts 171°
2026-04-27 13:38 31.13513 31.19618 13588 ft 367 kts 171°
2026-04-27 13:39 31.11006 31.20085 12869 ft 363 kts 171°
2026-04-27 13:39 31.08524 31.20546 12266 ft 357 kts 171°
2026-04-27 13:39 31.06073 31.21002 11749 ft 356 kts 171°
2026-04-27 13:39 31.03624 31.21457 11235 ft 356 kts 171°
2026-04-27 13:40 31.01209 31.21905 10735 ft 356 kts 171°
2026-04-27 13:40 30.98761 31.22360 10228 ft 355 kts 171°
2026-04-27 13:40 30.96319 31.22813 9732 ft 355 kts 171°
2026-04-27 13:40 30.93885 31.23265 9177 ft 354 kts 171°
2026-04-27 13:41 30.91459 31.23715 8653 ft 352 kts 171°
2026-04-27 13:41 30.89044 31.24162 8122 ft 351 kts 171°
2026-04-27 13:41 30.86639 31.24610 7616 ft 349 kts 171°
2026-04-27 13:41 30.84247 31.25054 7094 ft 346 kts 172°
2026-04-27 13:42 30.81884 31.25490 6596 ft 343 kts 172°
2026-04-27 13:42 30.79538 31.25924 6070 ft 340 kts 172°
2026-04-27 13:42 30.77202 31.26356 5557 ft 338 kts 172°
2026-04-27 13:42 30.74887 31.26783 5135 ft 334 kts 172°
2026-04-27 13:43 30.72637 31.27199 5010 ft 321 kts 173°
2026-04-27 13:43 30.70486 31.27596 4978 ft 305 kts 172°
2026-04-27 13:43 30.68416 31.27979 4977 ft 302 kts 172°
2026-04-27 13:43 30.66361 31.28357 4968 ft 297 kts 172°
2026-04-27 13:44 30.64326 31.28732 4957 ft 299 kts 172°
2026-04-27 13:44 30.62291 31.29106 4955 ft 291 kts 173°
2026-04-27 13:44 30.60337 31.29467 4954 ft 284 kts 172°
2026-04-27 13:44 30.58412 31.29821 4962 ft 277 kts 172°
2026-04-27 13:45 30.56512 31.30170 4969 ft 276 kts 173°
2026-04-27 13:45 30.54627 31.30516 4957 ft 270 kts 172°
2026-04-27 13:45 30.52823 31.30849 4954 ft 256 kts 172°
2026-04-27 13:45 30.51109 31.31164 4949 ft 243 kts 172°
2026-04-27 13:46 30.49483 31.31464 4946 ft 230 kts 172°
2026-04-27 13:46 30.47926 31.31750 4964 ft 224 kts 173°
2026-04-27 13:46 30.46379 31.32024 4973 ft 225 kts 177°
2026-04-27 13:46 30.44883 31.31721 4970 ft 217 kts 215°
2026-04-27 13:47 30.43862 31.30518 4982 ft 209 kts 248°
2026-04-27 13:47 30.43521 31.28918 4964 ft 205 kts 276°
2026-04-27 13:47 30.43906 31.27382 4975 ft 198 kts 305°
2026-04-27 13:47 30.44872 31.26286 4958 ft 196 kts 332°
2026-04-27 13:48 30.46189 31.25910 4879 ft 202 kts 358°
2026-04-27 13:48 30.47583 31.26299 4625 ft 212 kts 25°
2026-04-27 13:48 30.48663 31.27477 4384 ft 220 kts 54°
2026-04-27 13:48 30.49084 31.29204 4121 ft 230 kts 88°
2026-04-27 13:49 30.48616 31.30960 3915 ft 233 kts 124°
2026-04-27 13:49 30.47445 31.32290 3754 ft 239 kts 142°
2026-04-27 13:49 30.46079 31.33439 3571 ft 246 kts 144°
2026-04-27 13:49 30.44682 31.34557 3376 ft 246 kts 145°
2026-04-27 13:50 30.43296 31.35664 3202 ft 238 kts 145°
2026-04-27 13:50 30.41964 31.36734 3007 ft 228 kts 144°
2026-04-27 13:50 30.40686 31.37766 2789 ft 220 kts 144°
2026-04-27 13:50 30.39451 31.38769 2572 ft 214 kts 144°
2026-04-27 13:51 30.38252 31.39745 2371 ft 207 kts 145°
2026-04-27 13:51 30.37092 31.40692 2160 ft 201 kts 145°
2026-04-27 13:51 30.35944 31.41629 2021 ft 203 kts 145°
2026-04-27 13:51 30.34783 31.42578 1992 ft 204 kts 145°
2026-04-27 13:52 30.33638 31.43516 1986 ft 199 kts 144°
2026-04-27 13:52 30.32481 31.44373 1951 ft 197 kts 166°
2026-04-27 13:52 30.31138 31.44519 2016 ft 194 kts 167°
2026-04-27 13:52 30.29949 31.44982 3160 ft 171 kts 163°
2026-04-27 13:53 30.27223 31.45734 4134 ft 242 kts 192°
2026-04-27 13:53 30.25801 31.44855 4552 ft 234 kts 222°
2026-04-27 13:54 30.19676 31.41978 4564 ft 256 kts 176°
2026-04-27 13:54 30.18079 31.42734 4489 ft 253 kts 140°
2026-04-27 13:55 30.16998 31.44309 4472 ft 245 kts 111°
2026-04-27 13:55 30.16635 31.46144 4445 ft 225 kts 88°
2026-04-27 13:55 30.16800 31.47886 4186 ft 213 kts 72°
2026-04-27 13:55 30.17331 31.49413 3951 ft 199 kts 52°
2026-04-27 13:56 30.18096 31.50709 3737 ft 194 kts 53°
2026-04-27 13:56 30.18644 31.52135 3508 ft 194 kts 66°
2026-04-27 13:56 30.18913 31.53660 3289 ft 196 kts 85°
2026-04-27 13:56 30.18836 31.55228 3070 ft 194 kts 89°
2026-04-27 13:57 30.18753 31.56791 2841 ft 195 kts 91°
2026-04-27 13:57 30.18670 31.58355 2637 ft 194 kts 89°
2026-04-27 13:57 30.19012 31.59798 2387 ft 184 kts 43°
2026-04-27 13:57 30.20081 31.60391 2213 ft 169 kts
2026-04-27 13:58 30.21225 31.60271 2023 ft 162 kts 339°
2026-04-27 13:58 30.22109 31.59566 1987 ft 159 kts 311°
2026-04-27 13:58 30.22579 31.58365 1990 ft 173 kts 281°
2026-04-27 13:58 30.22376 31.56961 1962 ft 185 kts 245°
2026-04-27 13:59 30.21647 31.55763 1973 ft 180 kts 239°
2026-04-27 13:59 30.20905 31.54601 1982 ft 182 kts 236°
2026-04-27 13:59 30.20105 31.53513 1947 ft 173 kts 235°
2026-04-27 13:59 30.19336 31.52478 1972 ft 171 kts 234°
2026-04-27 14:00 30.18569 31.51444 1974 ft 165 kts 234°
2026-04-27 14:00 30.17836 31.50456 1981 ft 158 kts 236°
2026-04-27 14:00 30.17127 31.49496 1973 ft 157 kts 237°
2026-04-27 14:00 30.16398 31.48507 1894 ft 167 kts 235°
2026-04-27 14:01 30.15660 31.47513 1699 ft 159 kts 234°
2026-04-27 14:01 30.14964 31.46575 1494 ft 149 kts 237°
2026-04-27 14:01 30.14292 31.45661 1310 ft 152 kts 236°
2026-04-27 14:01 30.13592 31.44704 1034 ft 161 kts 234°
2026-04-27 14:02 30.12855 31.43719 721 ft 162 kts 237°
2026-04-27 14:02 30.12169 31.42759 422 ft 148 kts 234°
2026-04-27 14:02 30.11556 31.41923 370 ft 122 kts 227°
2026-04-27 14:02 30.11071 31.41291 374 ft 88 kts 230°
2026-04-27 14:03 30.10822 31.40960 371 ft 39 kts 229°
2026-04-27 14:03 30.10766 31.40732 373 ft 24 kts 304°
2026-04-27 14:03 30.10838 31.40600 373 ft 20 kts 253°
2026-04-27 14:03 30.10757 31.40476 373 ft 19 kts 229°
2026-04-27 14:04 30.10686 31.40369 373 ft 13 kts 256°
2026-04-27 14:04 30.10713 31.40293 373 ft 3 kts 322°
2026-04-27 14:04 30.10732 31.40293 373 ft 3 kts 21°
2026-04-27 14:04 30.10752 31.40313 373 ft 5 kts 47°
2026-04-27 14:05 30.10783 31.40354 373 ft 9 kts 48°
2026-04-27 14:05 30.10831 31.40417 373 ft 12 kts 47°
2026-04-27 14:05 30.10908 31.40453 373 ft 14 kts 333°
2026-04-27 14:05 30.10955 31.40362 373 ft 14 kts 282°
2026-04-27 14:06 30.10979 31.40260 373 ft 13 kts 285°
2026-04-27 14:06 30.10976 31.40165 373 ft 11 kts 237°
2026-04-27 14:06 30.10925 31.40135 373 ft 6 kts 194°
2026-04-27 14:06 30.10901 31.40123 373 ft 2 kts 220°
2026-04-27 14:07 30.10894 31.40103 373 ft 3 kts 262°
2026-04-27 14:07 30.10895 31.40069 373 ft 5 kts 278°
2026-04-27 14:07 30.10892 31.40027 373 ft 4 kts 257°
2026-04-27 14:07 30.10887 31.40004 373 ft 0 kts 256°
2026-04-27 14:14 30.10887 31.40005 373 ft 0 kts 256°